| time (UTC) | temp F | wind direction | speed knots | gust knots | rain 1hr in | rain 24hr in | rain mn in | humidity % | barometer mb |
| 20260906221020 | 86 | 134 | 6.1 | 12.2 | 0.00 | 0.00 | 0.00 | 31 | 1002.3 |
| 20260906220519 | 86 | 163 | 7.0 | 13.0 | 0.00 | 0.00 | 0.00 | 31 | 1002.3 |
| 20260906220019 | 87 | 142 | 3.5 | 10.4 | 0.00 | 0.00 | 0.00 | 29 | 1002.5 |
| 20260906215519 | 88 | 158 | 6.1 | 10.4 | 0.00 | 0.00 | 0.00 | 28 | 1002.4 |
| 20260906215018 | 88 | 144 | 6.1 | 12.2 | 0.00 | 0.00 | 0.00 | 30 | 1002.5 |
| 20260906214521 | 87 | 160 | 7.8 | 12.2 | 0.00 | 0.00 | 0.00 | 30 | 1002.7 |
| 20260906214021 | 87 | 170 | 3.5 | 9.6 | 0.00 | 0.00 | 0.00 | 28 | 1002.8 |
| 20260906213515 | 87 | 168 | 3.5 | 9.6 | 0.00 | 0.00 | 0.00 | 28 | 1002.8 |
| 20260906213019 | 87 | 157 | 4.3 | 10.4 | 0.00 | 0.00 | 0.00 | 28 | 1002.9 |
| 20260906212515 | 88 | 179 | 5.2 | 9.6 | 0.00 | 0.00 | 0.00 | 27 | 1003.0 |
| 20260906212016 | 88 | 185 | 6.1 | 10.4 | 0.00 | 0.00 | 0.00 | 27 | 1002.9 |
| 20260906211529 | 88 | 228 | 4.3 | 10.4 | 0.00 | 0.00 | 0.00 | 27 | 1002.9 |
| 20260906211020 | 88 | 82 | 2.6 | 11.3 | 0.00 | 0.00 | 0.00 | 26 | 1003.0 |
| 20260906210515 | 89 | 196 | 3.5 | 12.2 | 0.00 | 0.00 | 0.00 | 26 | 1003.2 |
| 20260906210013 | 90 | 190 | 7.0 | 13.0 | 0.00 | 0.00 | 0.00 | 24 | 1003.0 |
| 20260906205514 | 91 | 223 | 6.1 | 12.2 | 0.00 | 0.00 | 0.00 | 23 | 1003.1 |
| 20260906205013 | 93 | 202 | 7.0 | 12.2 | 0.00 | 0.00 | 0.00 | 22 | 1003.2 |
| 20260906204523 | 93 | 288 | 4.3 | 13.0 | 0.00 | 0.00 | 0.00 | 23 | 1003.2 |
| 20260906204011 | 92 | 137 | 4.3 | 13.0 | 0.00 | 0.00 | 0.00 | 27 | 1002.9 |
| 20260906203510 | 91 | 94 | 2.6 | 13.0 | 0.00 | 0.00 | 0.00 | 28 | 1003.3 |
| 20260906203010 | 90 | 82 | 6.1 | 10.4 | 0.00 | 0.00 | 0.00 | 27 | 1003.4 |
| 20260906202509 | 88 | 82 | 3.5 | 9.6 | 0.00 | 0.00 | 0.00 | 29 | 1003.4 |
| 20260906202009 | 88 | 32 | 3.5 | 11.3 | 0.00 | 0.00 | 0.00 | 29 | 1003.5 |
| 20260906201608 | 87 | 32 | 4.3 | 11.3 | 0.00 | 0.00 | 0.00 | 30 | 1003.6 |
| 20260906201006 | 87 | 61 | 4.3 | 10.4 | 0.00 | 0.00 | 0.00 | 30 | 1003.9 |
| 20260906200506 | 87 | 103 | 5.2 | 10.4 | 0.00 | 0.00 | 0.00 | 30 | 1003.9 |
| 20260906200006 | 88 | 113 | 5.2 | 12.2 | 0.00 | 0.00 | 0.00 | 30 | 1003.9 |
| 20260906195506 | 88 | 118 | 7.0 | 12.2 | 0.00 | 0.00 | 0.00 | 29 | 1004.0 |
| 20260906195005 | 90 | 107 | 3.5 | 11.3 | 0.00 | 0.00 | 0.00 | 28 | 1003.9 |
| 20260906194508 | 90 | 111 | 5.2 | 11.3 | 0.00 | 0.00 | 0.00 | 28 | 1004.0 |
| 20260906194009 | 89 | 64 | 6.1 | 10.4 | 0.00 | 0.00 | 0.00 | 28 | 1004.1 |
| 20260906193505 | 89 | 95 | 4.3 | 12.2 | 0.00 | 0.00 | 0.00 | 29 | 1004.1 |
| 20260906193005 | 90 | 124 | 5.2 | 13.0 | 0.00 | 0.00 | 0.00 | 27 | 1004.2 |
| 20260906192504 | 91 | 53 | 3.5 | 13.0 | 0.00 | 0.00 | 0.00 | 27 | 1004.3 |
| 20260906192003 | 91 | 113 | 4.3 | 8.7 | 0.00 | 0.00 | 0.00 | 27 | 1004.3 |
| 20260906191508 | 91 | 34 | 2.6 | 9.6 | 0.00 | 0.00 | 0.00 | 27 | 1004.5 |
| 20260906191001 | 91 | 80 | 1.7 | 9.6 | 0.00 | 0.00 | 0.00 | 27 | 1004.5 |
| 20260906190602 | 90 | 63 | 3.5 | 9.6 | 0.00 | 0.00 | 0.00 | 27 | 1004.6 |
| 20260906190059 | 89 | 65 | 2.6 | 9.6 | 0.00 | 0.00 | 0.00 | 27 | 1004.7 |
| 20260906185557 | 89 | 86 | 4.3 | 9.6 | 0.00 | 0.00 | 0.00 | 27 | 1004.9 |
| 20260906185056 | 89 | 122 | 0.9 | 9.6 | 0.00 | 0.00 | 0.00 | 27 | 1005.0 |
| 20260906184554 | 89 | 114 | 4.3 | 9.6 | 0.00 | 0.00 | 0.00 | 27 | 1005.1 |
| 20260906184052 | 88 | 61 | 2.6 | 7.8 | 0.00 | 0.00 | 0.00 | 29 | 1005.1 |
| 20260906183552 | 88 | 104 | 3.5 | 10.4 | 0.00 | 0.00 | 0.00 | 29 | 1005.4 |
| 20260906183051 | 88 | 117 | 3.5 | 10.4 | 0.00 | 0.00 | 0.00 | 28 | 1005.6 |
| 20260906182549 | 88 | 136 | 0.9 | 7.8 | 0.00 | 0.00 | 0.00 | 29 | 1005.6 |
| 20260906182051 | 87 | 94 | 2.6 | 8.7 | 0.00 | 0.00 | 0.00 | 30 | 1005.8 |
| 20260906181615 | 87 | 55 | 3.5 | 8.7 | 0.00 | 0.00 | 0.00 | 30 | 1005.9 |
| 20260906181045 | 87 | 80 | 2.6 | 7.8 | 0.00 | 0.00 | 0.00 | 31 | 1006.0 |
| 20260906180546 | 87 | 59 | 1.7 | 7.8 | 0.00 | 0.00 | 0.00 | 30 | 1006.1 |
| 20260906180043 | 87 | 30 | 1.7 | 5.2 | 0.00 | 0.00 | 0.00 | 30 | 1006.3 |
| 20260906175542 | 86 | 67 | 1.7 | 9.6 | 0.00 | 0.00 | 0.00 | 30 | 1006.4 |
| 20260906175042 | 86 | 118 | 3.5 | 7.0 | 0.00 | 0.00 | 0.00 | 31 | 1006.5 |
| 20260906174547 | 86 | 56 | 0.9 | 5.2 | 0.00 | 0.00 | 0.00 | 31 | 1006.5 |
| 20260906174041 | 85 | 186 | 0.0 | 6.1 | 0.00 | 0.00 | 0.00 | 30 | 1006.7 |
| 20260906173536 | 85 | 101 | 0.9 | 6.1 | 0.00 | 0.00 | 0.00 | 30 | 1006.8 |
| 20260906173036 | 85 | 132 | 0.0 | 4.3 | 0.00 | 0.00 | 0.00 | 30 | 1006.9 |
| 20260906172535 | 85 | 167 | 1.7 | 4.3 | 0.00 | 0.00 | 0.00 | 31 | 1007.0 |
| 20260906172036 | 84 | 117 | 0.9 | 3.5 | 0.00 | 0.00 | 0.00 | 31 | 1007.1 |
| 20260906171532 | 84 | 331 | 0.9 | 5.2 | 0.00 | 0.00 | 0.00 | 34 | 1007.2 |
| 20260906171030 | 84 | 185 | 0.0 | 5.2 | 0.00 | 0.00 | 0.00 | 33 | 1007.2 |
| 20260906170529 | 84 | 126 | 2.6 | 6.1 | 0.00 | 0.00 | 0.00 | 31 | 1007.3 |
| 20260906170028 | 84 | 61 | 0.0 | 2.6 | 0.00 | 0.00 | 0.00 | 35 | 1007.3 |
| 20260906165530 | 83 | 34 | 0.9 | 3.5 | 0.00 | 0.00 | 0.00 | 36 | 1007.4 |
| 20260906165033 | 83 | 294 | 0.9 | 5.2 | 0.00 | 0.00 | 0.00 | 36 | 1007.5 |
| 20260906164527 | 82 | 30 | 0.9 | 5.2 | 0.00 | 0.00 | 0.00 | 36 | 1007.5 |
| 20260906164022 | 82 | 38 | 1.7 | 3.5 | 0.00 | 0.00 | 0.00 | 37 | 1007.5 |
| 20260906163520 | 81 | 50 | 0.9 | 3.5 | 0.00 | 0.00 | 0.00 | 37 | 1007.6 |
| 20260906163019 | 80 | 49 | 0.9 | 3.5 | 0.00 | 0.00 | 0.00 | 38 | 1007.6 |
| 20260906162518 | 80 | 52 | 0.9 | 3.5 | 0.00 | 0.00 | 0.00 | 39 | 1007.7 |
| 20260906162015 | 79 | 49 | 0.9 | 3.5 | 0.00 | 0.00 | 0.00 | 40 | 1007.7 |
| 20260906161516 | 78 | 55 | 0.0 | 2.6 | 0.00 | 0.00 | 0.00 | 41 | 1007.8 |
| 20260906161013 | 78 | 50 | 0.0 | 2.6 | 0.00 | 0.00 | 0.00 | 41 | 1007.8 |
| 20260906160511 | 77 | 54 | 0.9 | 3.5 | 0.00 | 0.00 | 0.00 | 42 | 1007.8 |
| 20260906160010 | 77 | 63 | 0.9 | 3.5 | 0.00 | 0.00 | 0.00 | 41 | 1008.0 |
| 20260906155509 | 76 | 132 | 0.9 | 2.6 | 0.00 | 0.00 | 0.00 | 43 | 1007.8 |
| 20260906155008 | 75 | 133 | 0.0 | 2.6 | 0.00 | 0.00 | 0.00 | 43 | 1007.9 |
| 20260906154517 | 75 | 133 | 0.9 | 2.6 | 0.00 | 0.00 | 0.00 | 44 | 1007.9 |
| 20260906154005 | 74 | 97 | 0.9 | 2.6 | 0.00 | 0.00 | 0.00 | 44 | 1007.9 |
| 20260906153504 | 73 | 96 | 0.0 | 0.0 | 0.00 | 0.00 | 0.00 | 44 | 1007.7 |
| 20260906153003 | 73 | 77 | 0.0 | 0.0 | 0.00 | 0.00 | 0.00 | 45 | 1007.8 |
| 20260906152601 | 73 | 65 | 0.0 | 0.0 | 0.00 | 0.00 | 0.00 | 46 | 1007.8 |
| 20260906152058 | 73 | 65 | 0.0 | 0.0 | 0.00 | 0.00 | 0.00 | 47 | 1007.8 |
| 20260906151603 | 72 | 65 | 0.0 | 0.0 | 0.00 | 0.00 | 0.00 | 49 | 1007.8 |
| 20260906151057 | 71 | 66 | 0.0 | 0.9 | 0.00 | 0.00 | 0.00 | 50 | 1007.9 |
| 20260906150554 | 71 | 66 | 0.0 | 0.0 | 0.00 | 0.00 | 0.00 | 50 | 1007.9 |
| 20260906150053 | 70 | 64 | 0.0 | 0.0 | 0.00 | 0.00 | 0.00 | 52 | 1008.0 |
| 20260906145551 | 70 | 64 | 0.0 | 0.0 | 0.00 | 0.00 | 0.00 | 53 | 1008.0 |
| 20260906145050 | 69 | 65 | 0.0 | 0.0 | 0.00 | 0.00 | 0.00 | 55 | 1008.1 |
| 20260906144606 | 68 | 65 | 0.0 | 0.0 | 0.00 | 0.00 | 0.00 | 55 | 1008.1 |
| 20260906144047 | 68 | 65 | 0.0 | 0.0 | 0.00 | 0.00 | 0.00 | 57 | 1008.0 |
| 20260906143548 | 67 | 65 | 0.0 | 0.0 | 0.00 | 0.00 | 0.00 | 58 | 1008.1 |
| 20260906143044 | 67 | 65 | 0.0 | 0.9 | 0.00 | 0.00 | 0.00 | 58 | 1008.2 |
| 20260906142542 | 66 | 64 | 0.0 | 2.6 | 0.00 | 0.00 | 0.00 | 58 | 1008.3 |
| 20260906142042 | 65 | 65 | 0.9 | 3.5 | 0.00 | 0.00 | 0.00 | 57 | 1008.3 |
| 20260906141540 | 65 | 64 | 0.9 | 3.5 | 0.00 | 0.00 | 0.00 | 56 | 1008.3 |
| 20260906141038 | 64 | 136 | 0.0 | 2.6 | 0.00 | 0.00 | 0.00 | 58 | 1008.3 |
| 20260906140536 | 64 | 137 | 0.0 | 0.9 | 0.00 | 0.00 | 0.00 | 60 | 1008.2 |
| 20260906140037 | 63 | 156 | 0.0 | 1.7 | 0.00 | 0.00 | 0.00 | 61 | 1008.1 |
| 20260906135534 | 62 | 156 | 0.0 | 1.7 | 0.00 | 0.00 | 0.00 | 61 | 1008.2 |
| 20260906135032 | 61 | 156 | 0.0 | 1.7 | 0.00 | 0.00 | 0.00 | 62 | 1008.1 |
| 20260906134534 | 61 | 156 | 0.0 | 1.7 | 0.00 | 0.00 | 0.00 | 64 | 1008.1 |
| 20260906134030 | 60 | 156 | 0.0 | 1.7 | 0.00 | 0.00 | 0.00 | 65 | 1008.1 |
| 20260906133527 | 60 | 156 | 0.0 | 0.9 | 0.00 | 0.00 | 0.00 | 65 | 1008.1 |
| 20260906133027 | 59 | 156 | 0.0 | 0.9 | 0.00 | 0.00 | 0.00 | 65 | 1008.0 |
| 20260906132525 | 59 | 156 | 0.0 | 2.6 | 0.00 | 0.00 | 0.00 | 65 | 1008.0 |
| 20260906132023 | 59 | 156 | 0.0 | 2.6 | 0.00 | 0.00 | 0.00 | 65 | 1007.9 |
| 20260906131523 | 59 | 164 | 0.0 | 2.6 | 0.00 | 0.00 | 0.00 | 65 | 1007.8 |
| 20260906131022 | 59 | 164 | 0.0 | 1.7 | 0.00 | 0.00 | 0.00 | 64 | 1007.8 |
| 20260906130522 | 59 | 164 | 0.0 | 1.7 | 0.00 | 0.00 | 0.00 | 64 | 1007.9 |
| 20260906130020 | 59 | 164 | 0.0 | 1.7 | 0.00 | 0.00 | 0.00 | 63 | 1007.8 |
| 20260906125520 | 59 | 164 | 0.0 | 2.6 | 0.00 | 0.00 | 0.00 | 63 | 1007.7 |
| 20260906125020 | 59 | 164 | 0.0 | 2.6 | 0.00 | 0.00 | 0.00 | 63 | 1007.8 |
| 20260906124522 | 59 | 186 | 0.0 | 0.0 | 0.00 | 0.00 | 0.00 | 63 | 1007.7 |
| 20260906124019 | 59 | 186 | 0.0 | 0.0 | 0.00 | 0.00 | 0.00 | 63 | 1007.5 |
| 20260906123517 | 59 | 187 | 0.0 | 0.0 | 0.00 | 0.00 | 0.00 | 62 | 1007.5 |
| 20260906123016 | 59 | 187 | 0.0 | 0.9 | 0.00 | 0.00 | 0.00 | 62 | 1007.5 |
| 20260906122517 | 59 | 187 | 0.0 | 0.0 | 0.00 | 0.00 | 0.00 | 62 | 1007.5 |
| 20260906122017 | 59 | 187 | 0.0 | 0.0 | 0.00 | 0.00 | 0.00 | 62 | 1007.6 |
| 20260906121517 | 59 | 187 | 0.0 | 0.0 | 0.00 | 0.00 | 0.00 | 62 | 1007.5 |
| 20260906121021 | 59 | 187 | 0.0 | 0.9 | 0.00 | 0.00 | 0.00 | 61 | 1007.6 |
| 20260906120515 | 59 | 187 | 0.0 | 0.9 | 0.00 | 0.00 | 0.00 | 61 | 1007.7 |
| 20260906120014 | 60 | 187 | 0.0 | 0.9 | 0.00 | 0.00 | 0.00 | 61 | 1007.6 |
| 20260906115514 | 60 | 187 | 0.0 | 0.0 | 0.00 | 0.00 | 0.00 | 61 | 1007.6 |
| 20260906115013 | 60 | 187 | 0.0 | 0.9 | 0.00 | 0.00 | 0.00 | 61 | 1007.7 |
| 20260906114528 | 60 | 187 | 0.0 | 2.6 | 0.00 | 0.00 | 0.00 | 60 | 1007.6 |
| 20260906114011 | 60 | 187 | 0.9 | 3.5 | 0.00 | 0.00 | 0.00 | 60 | 1007.4 |
| 20260906113510 | 61 | 187 | 1.7 | 3.5 | 0.00 | 0.00 | 0.00 | 60 | 1007.6 |
| 20260906113009 | 61 | 186 | 0.9 | 2.6 | 0.00 | 0.00 | 0.00 | 59 | 1007.5 |
| 20260906112509 | 61 | 180 | 0.0 | 0.0 | 0.00 | 0.00 | 0.00 | 59 | 1007.4 |
| 20260906112008 | 61 | 180 | 0.0 | 0.0 | 0.00 | 0.00 | 0.00 | 59 | 1007.3 |
| 20260906111507 | 61 | 180 | 0.0 | 0.0 | 0.00 | 0.00 | 0.00 | 58 | 1007.1 |
| 20260906111006 | 61 | 180 | 0.0 | 0.0 | 0.00 | 0.00 | 0.00 | 58 | 1007.2 |
| 20260906110506 | 62 | 180 | 0.0 | 0.0 | 0.00 | 0.00 | 0.00 | 57 | 1007.2 |
| 20260906110005 | 62 | 180 | 0.0 | 0.0 | 0.00 | 0.00 | 0.00 | 57 | 1007.2 |
| 20260906105504 | 62 | 180 | 0.0 | 0.0 | 0.00 | 0.00 | 0.00 | 57 | 1007.3 |
| 20260906105004 | 62 | 180 | 0.0 | 0.0 | 0.00 | 0.00 | 0.00 | 56 | 1007.2 |
| 20260906104502 | 62 | 179 | 0.0 | 0.0 | 0.00 | 0.00 | 0.00 | 56 | 1007.0 |
| 20260906104002 | 62 | 179 | 0.0 | 0.9 | 0.00 | 0.00 | 0.00 | 56 | 1007.1 |
| 20260906103501 | 62 | 179 | 0.0 | 1.7 | 0.00 | 0.00 | 0.00 | 56 | 1007.1 |
| 20260906103101 | 62 | 179 | 0.0 | 2.6 | 0.00 | 0.00 | 0.00 | 56 | 1007.1 |
| 20260906102600 | 63 | 180 | 0.0 | 2.6 | 0.00 | 0.00 | 0.00 | 56 | 1007.0 |
| 20260906102059 | 63 | 184 | 0.0 | 0.0 | 0.00 | 0.00 | 0.00 | 56 | 1006.9 |
| 20260906101600 | 63 | 184 | 0.0 | 0.0 | 0.00 | 0.00 | 0.00 | 56 | 1006.9 |
| 20260906101102 | 63 | 184 | 0.0 | 0.0 | 0.00 | 0.00 | 0.00 | 56 | 1007.0 |
| 20260906100603 | 63 | 184 | 0.0 | 0.0 | 0.00 | 0.00 | 0.00 | 56 | 1007.1 |
| 20260906100058 | 63 | 184 | 0.0 | 1.7 | 0.00 | 0.00 | 0.00 | 56 | 1007.0 |
| 20260906095601 | 63 | 184 | 0.0 | 1.7 | 0.00 | 0.00 | 0.00 | 56 | 1007.0 |
| 20260906095058 | 63 | 232 | 0.0 | 0.0 | 0.00 | 0.00 | 0.00 | 57 | 1007.0 |
| 20260906094613 | 63 | 232 | 0.0 | 0.0 | 0.00 | 0.00 | 0.00 | 56 | 1007.0 |
| 20260906094057 | 63 | 232 | 0.0 | 1.7 | 0.00 | 0.00 | 0.00 | 56 | 1006.9 |
| 20260906093556 | 63 | 232 | 0.0 | 2.6 | 0.00 | 0.00 | 0.00 | 57 | 1007.0 |
| 20260906093128 | 63 | 234 | 0.0 | 3.5 | 0.00 | 0.00 | 0.00 | 56 | 1006.9 |
| 20260906092554 | 63 | 234 | 2.6 | 3.5 | 0.00 | 0.00 | 0.00 | 56 | 1006.8 |
| 20260906092054 | 63 | 234 | 1.7 | 2.6 | 0.00 | 0.00 | 0.00 | 56 | 1006.9 |
| 20260906091601 | 63 | 234 | 0.0 | 3.5 | 0.00 | 0.00 | 0.00 | 56 | 1007.0 |
| 20260906091055 | 64 | 234 | 1.7 | 3.5 | 0.00 | 0.00 | 0.00 | 55 | 1007.0 |
| 20260906090550 | 64 | 230 | 1.7 | 3.5 | 0.00 | 0.00 | 0.00 | 55 | 1006.9 |
| 20260906090049 | 65 | 227 | 1.7 | 3.5 | 0.00 | 0.00 | 0.00 | 54 | 1006.7 |
| 20260906085549 | 65 | 209 | 0.9 | 3.5 | 0.00 | 0.00 | 0.00 | 53 | 1006.8 |
| 20260906085048 | 65 | 166 | 0.0 | 2.6 | 0.00 | 0.00 | 0.00 | 52 | 1006.8 |
| 20260906084548 | 65 | 166 | 0.0 | 0.9 | 0.00 | 0.00 | 0.00 | 52 | 1006.7 |
| 20260906084051 | 65 | 166 | 0.0 | 1.7 | 0.00 | 0.00 | 0.00 | 52 | 1006.6 |
| 20260906083548 | 65 | 166 | 0.0 | 4.3 | 0.00 | 0.00 | 0.00 | 52 | 1006.6 |
| 20260906083049 | 65 | 166 | 0.9 | 4.3 | 0.00 | 0.00 | 0.00 | 52 | 1006.6 |
| 20260906082545 | 65 | 223 | 0.9 | 2.6 | 0.00 | 0.00 | 0.00 | 51 | 1006.7 |
| 20260906082044 | 66 | 242 | 0.0 | 1.7 | 0.00 | 0.00 | 0.00 | 51 | 1006.7 |
| 20260906081545 | 66 | 242 | 0.0 | 0.9 | 0.00 | 0.00 | 0.00 | 51 | 1006.7 |
| 20260906081044 | 66 | 242 | 0.0 | 0.0 | 0.00 | 0.00 | 0.00 | 51 | 1006.7 |
| 20260906080542 | 66 | 242 | 0.0 | 0.0 | 0.00 | 0.00 | 0.00 | 51 | 1006.6 |
| 20260906080043 | 66 | 242 | 0.0 | 2.6 | 0.00 | 0.00 | 0.00 | 51 | 1006.8 |
| 20260906075541 | 66 | 242 | 0.0 | 2.6 | 0.00 | 0.00 | 0.00 | 51 | 1006.7 |
| 20260906075041 | 66 | 242 | 0.9 | 3.5 | 0.00 | 0.00 | 0.00 | 51 | 1006.8 |
| 20260906074541 | 66 | 242 | 1.7 | 2.6 | 0.00 | 0.00 | 0.00 | 51 | 1006.8 |
| 20260906074040 | 66 | 242 | 0.9 | 2.6 | 0.00 | 0.00 | 0.00 | 51 | 1006.7 |
| 20260906073540 | 66 | 242 | 0.9 | 3.5 | 0.00 | 0.00 | 0.00 | 51 | 1006.7 |
| 20260906073039 | 66 | 243 | 1.7 | 3.5 | 0.00 | 0.00 | 0.00 | 51 | 1006.6 |
| 20260906072538 | 67 | 249 | 1.7 | 3.5 | 0.00 | 0.00 | 0.00 | 51 | 1006.7 |
| 20260906072037 | 67 | 284 | 1.7 | 2.6 | 0.00 | 0.00 | 0.00 | 51 | 1006.6 |
| 20260906071539 | 67 | 284 | 0.9 | 2.6 | 0.00 | 0.00 | 0.00 | 51 | 1006.6 |
| 20260906071040 | 67 | 284 | 1.7 | 2.6 | 0.00 | 0.00 | 0.00 | 51 | 1006.5 |
| 20260906070535 | 67 | 291 | 1.7 | 3.5 | 0.00 | 0.00 | 0.00 | 50 | 1006.5 |
| 20260906070036 | 67 | 293 | 1.7 | 3.5 | 0.00 | 0.00 | 0.00 | 50 | 1006.3 |
| 20260906065536 | 67 | 298 | 1.7 | 3.5 | 0.00 | 0.00 | 0.00 | 51 | 1006.2 |
| 20260906065035 | 67 | 316 | 0.0 | 0.0 | 0.00 | 0.00 | 0.00 | 52 | 1006.2 |
| 20260906064534 | 67 | 333 | 0.0 | 0.0 | 0.00 | 0.00 | 0.00 | 53 | 1006.2 |
| 20260906064033 | 68 | 333 | 0.0 | 0.0 | 0.00 | 0.00 | 0.00 | 51 | 1006.3 |
| 20260906063534 | 68 | 333 | 0.0 | 0.0 | 0.00 | 0.00 | 0.00 | 50 | 1006.2 |
| 20260906063034 | 68 | 333 | 0.0 | 0.0 | 0.00 | 0.00 | 0.00 | 50 | 1006.3 |
| 20260906062535 | 68 | 333 | 0.0 | 0.0 | 0.00 | 0.00 | 0.00 | 50 | 1006.3 |
| 20260906062029 | 69 | 333 | 0.0 | 0.0 | 0.00 | 0.00 | 0.00 | 49 | 1006.3 |
| 20260906061529 | 69 | 333 | 0.0 | 0.0 | 0.00 | 0.00 | 0.00 | 49 | 1006.4 |
| 20260906061026 | 70 | 333 | 0.0 | 2.6 | 0.00 | 0.00 | 0.00 | 51 | 1006.4 |
| 20260906060528 | 70 | 333 | 0.9 | 3.5 | 0.00 | 0.00 | 0.00 | 51 | 1006.4 |
| 20260906060024 | 70 | 335 | 0.0 | 3.5 | 0.00 | 0.00 | 0.00 | 47 | 1006.5 |
| 20260906055524 | 71 | 336 | 0.0 | 5.2 | 0.00 | 0.00 | 0.00 | 46 | 1006.7 |
| 20260906055024 | 71 | 329 | 1.7 | 5.2 | 0.00 | 0.00 | 0.00 | 45 | 1006.8 |
| 20260906054524 | 71 | 360 | 0.0 | 2.6 | 0.00 | 0.00 | 0.00 | 45 | 1006.5 |
| 20260906054026 | 71 | 37 | 0.0 | 4.3 | 0.00 | 0.00 | 0.00 | 46 | 1006.4 |
| 20260906053523 | 71 | 43 | 0.0 | 7.8 | 0.00 | 0.00 | 0.00 | 47 | 1006.5 |
| 20260906053023 | 71 | 348 | 2.6 | 7.8 | 0.00 | 0.00 | 0.00 | 47 | 1006.5 |
| 20260906052523 | 71 | 16 | 1.7 | 4.3 | 0.00 | 0.00 | 0.00 | 52 | 1006.5 |
| 20260906052023 | 71 | 242 | 0.0 | 0.0 | 0.00 | 0.00 | 0.00 | 53 | 1006.2 |
| 20260906051523 | 71 | 242 | 0.0 | 0.0 | 0.00 | 0.00 | 0.00 | 52 | 1006.2 |
| 20260906051022 | 71 | 242 | 0.0 | 0.0 | 0.00 | 0.00 | 0.00 | 52 | 1006.3 |
| 20260906050524 | 71 | 242 | 0.0 | 0.0 | 0.00 | 0.00 | 0.00 | 54 | 1006.4 |
| 20260906050023 | 71 | 242 | 0.0 | 0.0 | 0.00 | 0.00 | 0.00 | 53 | 1006.4 |
| 20260906045522 | 71 | 242 | 0.0 | 3.5 | 0.00 | 0.00 | 0.00 | 52 | 1006.4 |
| 20260906045022 | 72 | 242 | 0.9 | 3.5 | 0.00 | 0.00 | 0.00 | 51 | 1006.5 |
| 20260906044522 | 72 | 241 | 0.0 | 2.6 | 0.00 | 0.00 | 0.00 | 52 | 1006.5 |
| 20260906044022 | 72 | 154 | 0.0 | 0.0 | 0.00 | 0.00 | 0.00 | 52 | 1006.6 |
| 20260906043521 | 73 | 154 | 0.0 | 0.9 | 0.00 | 0.00 | 0.00 | 51 | 1006.6 |
| 20260906043021 | 73 | 154 | 0.0 | 1.7 | 0.00 | 0.00 | 0.00 | 50 | 1006.5 |
| 20260906042522 | 73 | 154 | 0.0 | 1.7 | 0.00 | 0.00 | 0.00 | 49 | 1006.6 |
| 20260906042021 | 74 | 154 | 0.0 | 2.6 | 0.00 | 0.00 | 0.00 | 48 | 1006.7 |
| 20260906041521 | 74 | 154 | 0.0 | 2.6 | 0.00 | 0.00 | 0.00 | 48 | 1006.6 |
| 20260906041021 | 74 | 240 | 0.0 | 1.7 | 0.00 | 0.00 | 0.00 | 47 | 1006.5 |
| 20260906040520 | 74 | 240 | 0.0 | 4.3 | 0.00 | 0.00 | 0.00 | 45 | 1006.5 |
| 20260906040028 | 75 | 240 | 1.7 | 4.3 | 0.00 | 0.00 | 0.00 | 45 | 1006.5 |
| 20260906035520 | 75 | 173 | 0.0 | 1.7 | 0.00 | 0.00 | 0.00 | 48 | 1006.6 |
| 20260906035023 | 75 | 173 | 0.0 | 1.7 | 0.00 | 0.00 | 0.00 | 48 | 1006.5 |
| 20260906034521 | 75 | 173 | 0.0 | 5.2 | 0.00 | 0.00 | 0.00 | 48 | 1006.7 |
| 20260906034021 | 75 | 173 | 0.9 | 5.2 | 0.00 | 0.00 | 0.00 | 49 | 1006.8 |
| 20260906033519 | 75 | 194 | 1.7 | 6.1 | 0.00 | 0.00 | 0.00 | 48 | 1006.7 |
| 20260906033027 | 74 | 159 | 3.5 | 6.1 | 0.00 | 0.00 | 0.00 | 49 | 1006.7 |
| 20260906032518 | 73 | 116 | 0.9 | 5.2 | 0.00 | 0.00 | 0.00 | 43 | 1006.7 |
| 20260906032018 | 72 | 81 | 1.7 | 5.2 | 0.00 | 0.00 | 0.00 | 38 | 1006.6 |
| 20260906031518 | 73 | 128 | 0.9 | 7.0 | 0.00 | 0.00 | 0.00 | 37 | 1006.7 |
| 20260906031018 | 73 | 129 | 2.6 | 7.0 | 0.00 | 0.00 | 0.00 | 36 | 1006.6 |
| 20260906030518 | 74 | 287 | 0.0 | 3.5 | 0.00 | 0.00 | 0.00 | 35 | 1006.0 |
| 20260906030019 | 74 | 287 | 0.9 | 4.3 | 0.00 | 0.00 | 0.00 | 35 | 1005.8 |
| 20260906025517 | 75 | 242 | 2.6 | 4.3 | 0.00 | 0.00 | 0.00 | 34 | 1005.5 |
| 20260906025019 | 75 | 246 | 1.7 | 3.5 | 0.00 | 0.00 | 0.00 | 34 | 1005.4 |
| 20260906024533 | 75 | 246 | 1.7 | 4.3 | 0.00 | 0.00 | 0.00 | 33 | 1005.4 |
| 20260906024017 | 76 | 250 | 2.6 | 3.5 | 0.00 | 0.00 | 0.00 | 33 | 1005.3 |
| 20260906023517 | 76 | 266 | 0.0 | 0.9 | 0.00 | 0.00 | 0.00 | 32 | 1005.1 |
| 20260906023022 | 76 | 266 | 0.0 | 1.7 | 0.00 | 0.00 | 0.00 | 32 | 1005.2 |
| 20260906022516 | 77 | 266 | 0.9 | 1.7 | 0.00 | 0.00 | 0.00 | 32 | 1005.2 |
| 20260906022018 | 77 | 266 | 0.0 | 4.3 | 0.00 | 0.00 | 0.00 | 32 | 1005.3 |
| 20260906021518 | 77 | 266 | 1.7 | 4.3 | 0.00 | 0.00 | 0.00 | 31 | 1005.2 |
| 20260906021016 | 77 | 219 | 1.7 | 3.5 | 0.00 | 0.00 | 0.00 | 31 | 1005.1 |
| 20260906020516 | 78 | 188 | 2.6 | 3.5 | 0.00 | 0.00 | 0.00 | 30 | 1005.1 |
| 20260906020016 | 78 | 154 | 0.9 | 2.6 | 0.00 | 0.00 | 0.00 | 30 | 1005.0 |
| 20260906015515 | 78 | 154 | 0.9 | 2.6 | 0.00 | 0.00 | 0.00 | 30 | 1004.9 |
| 20260906015016 | 78 | 154 | 0.9 | 4.3 | 0.00 | 0.00 | 0.00 | 30 | 1004.7 |
| 20260906014524 | 79 | 154 | 1.7 | 4.3 | 0.00 | 0.00 | 0.00 | 29 | 1004.8 |
| 20260906014015 | 79 | 151 | 0.9 | 4.3 | 0.00 | 0.00 | 0.00 | 29 | 1004.7 |
| 20260906013517 | 80 | 152 | 0.9 | 4.3 | 0.00 | 0.00 | 0.00 | 29 | 1004.6 |
| 20260906013034 | 80 | 152 | 0.9 | 4.3 | 0.00 | 0.00 | 0.00 | 28 | 1004.6 |
| 20260906012517 | 81 | 153 | 0.9 | 6.1 | 0.00 | 0.00 | 0.00 | 28 | 1004.4 |
| 20260906012014 | 81 | 162 | 1.7 | 4.3 | 0.00 | 0.00 | 0.00 | 27 | 1004.5 |
| 20260906011515 | 82 | 164 | 1.7 | 4.3 | 0.00 | 0.00 | 0.00 | 27 | 1004.5 |
| 20260906011015 | 82 | 165 | 0.9 | 6.1 | 0.00 | 0.00 | 0.00 | 26 | 1004.6 |
| 20260906010514 | 83 | 166 | 1.7 | 6.1 | 0.00 | 0.00 | 0.00 | 26 | 1004.6 |
| 20260906010014 | 83 | 171 | 3.5 | 6.1 | 0.00 | 0.00 | 0.00 | 26 | 1004.6 |
| 20260906005513 | 83 | 188 | 1.7 | 6.1 | 0.00 | 0.00 | 0.00 | 26 | 1004.8 |
| 20260906005014 | 83 | 215 | 3.5 | 7.0 | 0.00 | 0.00 | 0.00 | 25 | 1004.7 |
| 20260906004514 | 84 | 214 | 2.6 | 6.1 | 0.00 | 0.00 | 0.00 | 25 | 1004.8 |
| 20260906004013 | 84 | 214 | 2.6 | 12.2 | 0.00 | 0.00 | 0.00 | 25 | 1004.7 |
| 20260906003615 | 84 | 186 | 4.3 | 12.2 | 0.00 | 0.00 | 0.00 | 24 | 1004.7 |
| 20260906003012 | 84 | 202 | 5.2 | 8.7 | 0.00 | 0.00 | 0.00 | 24 | 1004.8 |
| 20260906002511 | 85 | 202 | 6.1 | 10.4 | 0.00 | 0.00 | 0.00 | 23 | 1004.6 |
| 20260906002012 | 85 | 226 | 6.1 | 10.4 | 0.00 | 0.00 | 0.00 | 23 | 1004.6 |
| 20260906001513 | 85 | 218 | 6.1 | 10.4 | 0.00 | 0.00 | 0.00 | 23 | 1004.6 |
| 20260906001011 | 85 | 216 | 6.1 | 10.4 | 0.00 | 0.00 | 0.00 | 23 | 1004.6 |
| 20260906000512 | 86 | 177 | 4.3 | 8.7 | 0.00 | 0.00 | 0.00 | 23 | 1004.6 |
| 20260906000012 | 86 | 196 | 4.3 | 7.0 | 0.00 | 0.00 | 0.00 | 24 | 1004.6 |
| 20260905235514 | 86 | 171 | 3.5 | 7.8 | 0.00 | 0.00 | 0.00 | 24 | 1004.5 |
| 20260905235011 | 86 | 175 | 4.3 | 9.6 | 0.00 | 0.00 | 0.00 | 24 | 1004.5 |
| 20260905234511 | 86 | 156 | 3.5 | 7.0 | 0.00 | 0.00 | 0.00 | 24 | 1004.3 |
| 20260905234011 | 86 | 134 | 4.3 | 7.8 | 0.00 | 0.00 | 0.00 | 24 | 1004.4 |
| 20260905233610 | 86 | 169 | 4.3 | 10.4 | 0.00 | 0.00 | 0.00 | 23 | 1004.4 |
| 20260905233012 | 87 | 173 | 6.1 | 11.3 | 0.00 | 0.00 | 0.00 | 23 | 1004.4 |
| 20260905232510 | 87 | 171 | 5.2 | 10.4 | 0.00 | 0.00 | 0.00 | 23 | 1004.5 |
| 20260905232010 | 87 | 196 | 6.1 | 11.3 | 0.00 | 0.00 | 0.00 | 23 | 1004.4 |
| 20260905231509 | 88 | 181 | 5.2 | 10.4 | 0.00 | 0.00 | 0.00 | 23 | 1004.3 |
| 20260905231008 | 88 | 154 | 6.1 | 9.6 | 0.00 | 0.00 | 0.00 | 23 | 1004.4 |
| 20260905230509 | 88 | 86 | 0.9 | 6.1 | 0.00 | 0.00 | 0.00 | 22 | 1004.4 |
| 20260905230009 | 88 | 117 | 0.9 | 6.1 | 0.00 | 0.00 | 0.00 | 22 | 1004.3 |
| 20260905225508 | 88 | 30 | 0.9 | 3.5 | 0.00 | 0.00 | 0.00 | 22 | 1004.3 |
| 20260905225007 | 88 | 109 | 0.9 | 7.0 | 0.00 | 0.00 | 0.00 | 22 | 1004.2 |
| 20260905224508 | 88 | 132 | 0.0 | 7.0 | 0.00 | 0.00 | 0.00 | 21 | 1004.4 |
| 20260905224007 | 89 | 121 | 1.7 | 5.2 | 0.00 | 0.00 | 0.00 | 21 | 1004.3 |
| 20260905223506 | 89 | 5 | 1.7 | 5.2 | 0.00 | 0.00 | 0.00 | 21 | 1004.3 |
| 20260905223006 | 89 | 109 | 1.7 | 6.1 | 0.00 | 0.00 | 0.00 | 21 | 1004.6 |
| 20260905222506 | 89 | 63 | 1.7 | 5.2 | 0.00 | 0.00 | 0.00 | 21 | 1004.5 |
| 20260905222005 | 89 | 97 | 0.9 | 5.2 | 0.00 | 0.00 | 0.00 | 21 | 1004.6 |
| 20260905221505 | 89 | 87 | 1.7 | 6.1 | 0.00 | 0.00 | 0.00 | 21 | 1004.5 |